Regional Weather Roundup
Issued by NWS

Home | Current Version | Previous Version | Graphics & Text | Print | Product List | Glossary On
Versions: 1 2 3 4 5 6 7 8 9 10 11 12 13 14 15 16 17 18 19 20 21 22 23 24 25 26 27 28 29 30 31 32 33 34 35 36 37 38 39 40 41 42 43 44 45 46 47 48 49 50
000
ASUS43 KIND 220109
RWRIN

WEATHER ROUNDUP FOR INDIANA
NATIONAL WEATHER SERVICE INDIANAPOLIS IN
900 PM EDT THU AUG 21 2014

NOTE: "FAIR" INDICATES FEW OR NO CLOUDS BELOW 12,000 FEET WITH NO
SIGNIFICANT WEATHER AND/OR OBSTRUCTIONS TO VISIBILITY.

* - STATION DOES NOT REPORT WEATHER SUCH AS PRECIPITATION OR FOG.

+ - STATION NOT QUALITY CONTROLLED BY THE NATIONAL WEATHER SERVICE.
    USE DATA WITH CAUTION...ESPECIALLY DEWPOINT AND RELATIVE
    HUMIDITY OBSERVATIONS.

INZ001>003-010>013-019-020-220200-
NORTHWEST INDIANA

CITY           SKY/WX    TMP DP  RH WIND       PRES   REMARKS
GARY /AIRPORT/ CLOUDY    75  72  88 MISG      29.92R
KNOX *+        CLOUDY    71  68  90 S6        29.92F
LA PORTE +     CLOUDY    71  71 100 SE3       29.93F
MICHIGAN CITY+ MOCLDY    72  72 100 S3        29.92S
MONTICELLO +   LGT RAIN  71  70  96 E7        29.93F
RENSSELAER +   CLOUDY    72  72 100 E5        29.93F
VALPARAISO     CLOUDY    74  73  97 S7        29.93S FOG

$$

LMZ046-743>745-220200-
SOUTHERN LAKE MICHIGAN

STATION/POSITION TIME  TEMP WIND        PRES
                       AIR  DIR/SP/G
                 (UTC) (F)  (DEG/KT/KT) (MB)
BURNS HARBOR     0100   76  180/ 11/ 16   N/A
MICHIGAN CITY    0100   75  130/  9/ 11   N/A

$$

INZ004-005-014>016-021>024-220200-
NORTH CENTRAL INDIANA

CITY           SKY/WX    TMP DP  RH WIND       PRES   REMARKS
ELKHART        MOCLDY    73  73 100 SE5       29.95
GOSHEN         CLOUDY    75  72  90 S9        29.94F
LOGANSPORT +   HVY RAIN  70  68  94 CALM      29.96R
PERU/GRISSOM   TSTM      71  71 100 NW21G40   29.98R
ROCHESTER +    TSTM      75  75 100 SE7       29.96F
SOUTH BEND     CLOUDY    75  71  87 SE6       29.93F

$$

INZ006>009-017-018-025>027-220200-
NORTHEAST INDIANA

CITY           SKY/WX    TMP DP  RH WIND       PRES   REMARKS
ANGOLA *+      MOCLDY    73  66  78 S3        29.98R
AUBURN +       CLOUDY    73  70  88 CALM      29.99R
FORT WAYNE     TSTM      74  72  93 E3        29.98S FOG
HUNTINGTON +   TSTM     N/A N/A N/A SE3       29.99R

$$

INZ028-029-035-036-043>045-051>053-220200-
WEST CENTRAL INDIANA

CITY           SKY/WX    TMP DP  RH WIND       PRES   REMARKS
GREENCASTLE +  PTCLDY    79  73  83 CALM      29.98R FOG
LAFAYETTE      CLOUDY    76  72  87 NE21      29.94R THUNDER
TERRE HAUTE    PTCLDY    81  74  79 S5        29.96R

$$

INZ030>032-037>040-046>048-054>057-064-065-220200-
CENTRAL INDIANA

CITY           SKY/WX    TMP DP  RH WIND       PRES   REMARKS
CP ATTERBURY + PTCLDY    79  73  83 S5        29.98F
FRANKFORT +    CLOUDY    79  79 100 CALM      29.97F
INDIANAPOLIS   MOCLDY    81  74  79 S9        29.96S
-EAGLE CREEK   MOCLDY    82  73  74 S3        29.96S
KOKOMO *+      CLOUDY    79  73  83 N16G22    29.98R THUNDER
MARION +       LGT RAIN  77  73  86 E5        29.96F
MT COMFORT *+  PTCLDY    79  79 100 S6        29.98S
SHELBYVILLE    PTCLDY    80  73  79 S6        29.98S
ZIONSVILLE +   MOCLDY    81  73  77 S5        29.96F

$$

INZ033-034-041-042-049-050-058-059-220200-
EAST CENTRAL INDIANA

CITY           SKY/WX    TMP DP  RH WIND       PRES   REMARKS
MUNCIE         MOCLDY    80  73  79 S8        29.97F

$$

INZ060-061-067>069-081>083-085>088-220200-
SOUTHWEST INDIANA

CITY           SKY/WX    TMP DP  RH WIND       PRES   REMARKS
EVANSVILLE     MOCLDY    84  71  65 SW7       29.97S
WASHINGTON +   PTCLDY    81  74  81 SW6       29.96S

$$

INZ062-063-066-070>080-084-089>092-220200-
SOUTH CENTRAL AND SOUTHEAST INDIANA

CITY           SKY/WX    TMP DP  RH WIND       PRES   REMARKS
BEDFORD +      MOCLDY    81  72  74 S3        29.99
BLOOMINGTON    PTCLDY    79  75  87 CALM      29.98S
NORTH VERNON + PTCLDY    77  77 100 CALM      30.00

$$




USA.gov is the U.S. government's official web portal to all federal, state and local government web resources and services.